Hors Challenge

Le Trail Des Hautes Fagnes - Xhoffraix (40.00 km)

samedi 28 septembre 2019

le classement original se trouve sur : http://www.inedichrono.be    
 
LE TRAIL DES HAUTES FAGNES - XHOFFRAIX
DISTANCE 39.88 km
samedi 28 septembre 2019
 
Place dos NOM Catégorie Pl/cat temps temps/km Vitesse
1 6048 BUCCI NICOLAS S 1 02:54:40 04:23 13.70
2 6023 REMACLE OLIVIER S 2 02:54:51 04:23 13.69
3 6052 CARABIN SEBASTIEN S 3 02:55:55 04:25 13.60
4 5142 DENEFFE GUILLAUME S 4 02:57:40 04:27 13.47
5 5490 VANDERSCHAEGHE JÉRÔME S 5 03:02:15 04:34 13.13
6 5482 PAHOS ANDREAS S 6 03:06:28 04:41 12.83
7 6043 ROUCHET FRANÇOIS S 7 03:07:29 04:42 12.76
8 6055 DIEPART XAVIER V1 1 03:07:37 04:42 12.75
9 5216 TRILLET DENIS S 8 03:07:44 04:42 12.75
10 5497 TIMMERMANN ALEXANDRE S 9 03:08:04 04:43 12.72
11 6037 THEUNIS GERT V1 2 03:09:27 04:45 12.63
12 6025 CHARLIER JULIEN S 10 03:10:04 04:46 12.59
13 5440 MAQUET ARNAUD S 11 03:12:26 04:50 12.44
14 6009 ASRIH KARIM S 12 03:12:38 04:50 12.42
15 6046 GÉROMBOUX ARNAUD S 13 03:14:06 04:52 12.33
16 6012 HERREGODTS ARON-LEVI S 14 03:15:01 04:53 12.27
17 6050 GRIFGNEE CHRISTOPHE S 15 03:18:42 04:59 12.04
18 5042 HEIRBAUT ARNE S 16 03:20:28 05:02 11.94
19 5256 ROLAND FRANCOIS S 17 03:21:02 05:02 11.90
20 5071 LIBERT DAMIEN S 18 03:21:48 05:04 11.86
21 6041 VAN LOKEREN STIJN S 19 03:22:17 05:04 11.83
22 5087 WINKIN GUILLAUME S 20 03:23:12 05:06 11.78
23 6026 GROFFIER JÉRÔME V1 3 03:23:47 05:07 11.74
24 5119 SMETS HUGO S 21 03:23:57 05:07 11.73
25 5464 WIERTZ XAVIER S 22 03:27:56 05:13 11.51
26 6028 WEYNAND WILLIAM S 23 03:30:47 05:17 11.35
27 5224 MAILLEUX THIERRY V1 4 03:31:07 05:18 11.33
28 5007 BONGERS DIMITRI S 24 03:32:50 05:20 11.24
29 5212 LORGE VINCENT S 25 03:33:06 05:21 11.23
30 6053 SKILBECQ PIERRE S 26 03:33:09 05:21 11.23
31 6031 PIETTE DAMIEN V1 5 03:33:31 05:21 11.21
32 5551 SERVAIS ALEX S 27 03:33:43 05:22 11.20
33 5573 SERVRANCKX KEVIN S 28 03:33:57 05:22 11.18
34 6032 GOMEZ XAVIER V1 6 03:34:15 05:22 11.17
35 6040 VERHEYDEN LARS S 29 03:35:39 05:24 11.10
36 5560 GREGOIRE JOEL V1 7 03:37:49 05:28 10.99
37 5471 DELMEE GILLES S 30 03:38:25 05:29 10.96
38 5501 OOST OLIVIER S 31 03:38:29 05:29 10.95
39 5331 BLINDEMAN NIELS S 32 03:38:53 05:29 10.93
40 5472 REGNARD ANTOINE S 33 03:38:55 05:29 10.93
41 6056 MALEVE BERENGERE A1 1 03:39:34 05:30 10.90
42 5344 GERMANES GEORGES S 34 03:40:44 05:32 10.84
43 6039 SPIESSENS WIM V1 8 03:40:54 05:32 10.83
44 5320 CELENTIN HUGUES S 35 03:41:02 05:33 10.83
45 5097 DRISSI TOUFIK S 36 03:41:55 05:34 10.78
46 5189 GIACOMELLI SERENO S 37 03:43:06 05:36 10.73
47 5483 VINCENT ADRIEN S 38 03:43:07 05:36 10.73
48 5305 DEVOS JIMMY V1 9 03:44:07 05:37 10.68
49 6000 VAN VOOREN LAURA D 1 03:44:57 05:38 10.64
50 5297 HENRIET NICOLAS S 39 03:45:02 05:39 10.63
51 5038 LAOUREUX DENIS V1 10 03:45:45 05:40 10.60
52 5112 MANETTE OLIVIER V1 11 03:45:46 05:40 10.60
53 5334 GREGOIRE THIBAUD S 40 03:46:21 05:41 10.57
54 5554 VAN RANST WIEBE S 41 03:46:42 05:41 10.56
55 5043 ROJO CEBRECOS IGNACIO V1 12 03:46:57 05:41 10.54
56 5357 DETRAIT HUGUES S 42 03:50:48 05:47 10.37
57 5326 MARCHAND STEPHANE V1 13 03:51:34 05:48 10.33
58 5492 ROBYNS RAPHAEL S 43 03:51:50 05:49 10.32
59 5333 VERSCHUEREN ERIC V2 1 03:52:56 05:50 10.27
60 5337 SWINNEN WANNES S 44 03:53:22 05:51 10.25
61 5579 JANSSENS GEERT S 45 03:53:22 05:51 10.25
62 5234 VAN GILS JAN V1 14 03:55:19 05:54 10.17
63 5343 OULUKOFF ANAÏS D 2 03:56:12 05:55 10.13
64 5413 VALOIS ALLAN S 46 03:56:46 05:56 10.11
65 5571 THUNUS ANTHONY S 47 03:57:07 05:57 10.09
66 5324 LACROIX ANTOINE S 48 03:57:18 05:57 10.08
67 5503 TODEA RELI V1 15 03:57:35 05:57 10.07
68 5365 DECHAMPS RAOUL V1 16 03:58:25 05:59 10.04
69 5028 LÉTÉ PASCAL V3 1 04:00:13 06:01 9.96
70 5445 HAGELSTEIN CHRISTIAN V1 17 04:01:28 06:03 9.91
71 6017 VANHOOF MARC V2 2 04:01:45 06:04 9.90
72 5280 HUBEAUX DENIS V1 18 04:03:09 06:06 9.84
73 6042 CHAMBEAU CAROLE D 3 04:03:11 06:06 9.84
74 5439 FELLER JÉRÔME V2 3 04:03:19 06:06 9.83
75 5041 DEWEER LANDER S 49 04:04:27 06:08 9.79
76 5175 SWARTENBROUCKX VINCENT V1 19 04:04:35 06:08 9.78
77 5541 KLOCKER MARTIN V2 4 04:04:42 06:08 9.78
78 5330 JAMART GUILLAUME S 50 04:05:53 06:10 9.73
79 5473 LESCRENIER RICHARD V1 20 04:05:59 06:10 9.73
80 5033 VERRETH ARVID V1 21 04:06:22 06:11 9.71
81 5185 DELERS MAXIMILIEN S 51 04:06:59 06:12 9.69
82 5277 GRUMERMER CHRISTIAN V1 22 04:07:01 06:12 9.69
83 5458 LENNARTZ BURKHARD V2 5 04:07:20 06:12 9.67
84 5197 VERSTRAETE OLIVIER V1 23 04:07:34 06:12 9.67
85 5332 DEFOSSA ARNOULD S 52 04:07:44 06:13 9.66
86 5568 MERCENIER ADRIEN S 53 04:08:24 06:14 9.63
87 5480 SERVAIS ARNAUD S 54 04:08:33 06:14 9.63
88 6033 VERMEULEN NELE D 4 04:08:34 06:14 9.63
89 5194 HAPPART GRÉGORY V1 24 04:08:46 06:14 9.62
90 5467 MOTTET PHILIPPE V1 25 04:08:48 06:14 9.62
91 5570 GODON ANNE A1 2 04:09:17 06:15 9.60
92 5496 WEIS BENJAMIN S 55 04:10:12 06:16 9.56
93 5193 BARBIER THIBAULT S 56 04:10:42 06:17 9.55
94 5218 CRAHAY CEDRIC V1 26 04:11:10 06:18 9.53
95 5181 HACKENS YANNICK V1 27 04:12:32 06:20 9.48
96 5017 CAPELLE CORALINE D 5 04:12:49 06:20 9.47
97 5279 VANHOVE JOACHIM S 57 04:12:52 06:20 9.46
98 5275 HOLLANDERS RUBEN S 58 04:14:12 06:22 9.41
99 5576 ZIMMERMANN NICOLAS S 59 04:14:15 06:23 9.41
100 5569 NURKOWSKI JONATHAN S 60 04:14:22 06:23 9.41
101 5555 DOLLAGUE GIL S 61 04:15:07 06:24 9.38
102 5272 STRAUVEN MARTIN S 62 04:15:11 06:24 9.38
103 5446 BRANLE DAVID V2 6 04:15:21 06:24 9.37
104 5227 LENDERS BENOÎT S 63 04:15:39 06:25 9.36
105 5284 HEYDEN CHRISTIAN V2 7 04:16:48 06:26 9.32
106 5151 PÉRIN THOMAS V1 28 04:16:55 06:27 9.31
107 6022 GALVEZ GAUTHIER S 64 04:17:35 06:28 9.29
108 5150 HERZL PIERRE-YVES V2 8 04:17:40 06:28 9.29
109 6002 JOLY ILKA A1 3 04:17:54 06:28 9.28
110 5301 GRUMERMER CHRISTOPHE V1 29 04:17:58 06:28 9.28
111 5543 SERVAIS JEAN-MARC V1 30 04:18:28 06:29 9.26
112 5236 JACOBS ROEL S 65 04:19:09 06:30 9.23
113 5717 SEUTIN ANNE A1 4 04:19:36 06:31 9.22
114 5463 DECARPENRIE MATHIAS S 66 04:20:37 06:32 9.18
115 5088 VAN DEN HAUWE MICKAEL S 67 04:20:47 06:32 9.18
116 5168 DEMBLON FLORIAN S 68 04:21:03 06:33 9.17
117 5561 STOFFELS ANTHONY S 69 04:21:03 06:33 9.17
118 5544 DOLDERMAN TIMO S 70 04:21:07 06:33 9.16
119 5304 THIJS PAUWELS S 71 04:21:40 06:34 9.14
120 5161 THEEUWEN ARNO V1 31 04:21:40 06:34 9.14
121 5293 IMMERZEEL GEERT V1 32 04:22:16 06:35 9.12
122 5264 DARCIS JÉRÔME S 72 04:22:31 06:35 9.12
123 5262 BESONHE SIMON V1 33 04:22:39 06:35 9.11
124 5223 LAUREYS PIERRE V2 9 04:23:08 06:36 9.09
125 5562 FANIELLE LAURENT S 73 04:23:25 06:36 9.08
126 5265 BOURGOIS MATHIEU S 74 04:23:35 06:37 9.08
127 5548 CALLAGNILE LEVI S 75 04:24:12 06:37 9.06
128 5187 MARGHEM GILLES S 76 04:24:19 06:38 9.05
129 5030 COHEN-SABBAN BRICE S 77 04:24:26 06:38 9.05
130 5575 DAWIRS GREGOIRE S 78 04:24:33 06:38 9.05
131 5499 DELFOSSE ALAIN S 79 04:24:52 06:38 9.03
132 5080 COLLETTE THOMAS S 80 04:24:56 06:39 9.03
133 6027 DELLEUR JEAN MARIE V2 10 04:25:03 06:39 9.03
134 5274 JUANOS CABANAS JORDI S 81 04:25:25 06:39 9.02
135 5341 REYNARTZ NADINE A1 5 04:25:56 06:40 9.00
136 6007 PARENT PASCAL V2 11 04:26:31 06:41 8.98
137 5056 MASSART JULIEN S 82 04:26:49 06:41 8.97
138 5443 CASTEL BENJAMIN S 83 04:27:22 06:42 8.95
139 5152 JACOBS JÉRÔME S 84 04:27:37 06:43 8.94
140 5359 NGO LIKENG CHRISTINE A1 6 04:27:47 06:43 8.94
141 5421 MASSAUX FRANÇOIS V1 34 04:27:51 06:43 8.93
142 5291 MICHEL IVES V2 12 04:27:55 06:43 8.93
143 5488 JODOGNE RAPHAEL V1 35 04:27:55 06:43 8.93
144 5166 THONNARD SÉVERINE D 6 04:28:28 06:44 8.91
145 5164 ROSA HUGUES V1 36 04:28:28 06:44 8.91
146 5079 TAMINIAU ANTOINE S 85 04:29:23 06:45 8.88
147 6057 RUBAY RAPHAEL V1 37 04:29:34 06:46 8.88
148 5100 ZANIER LAURENT V1 38 04:29:54 06:46 8.87
149 5546 FLOREN ERIC HSC   04:29:54 06:46 8.87
150 5478 DESCAMPS OLIVIER V2 13 04:30:15 06:47 8.85
151 5253 MESDOM BERT V1 39 04:30:18 06:47 8.85
152 5130 HARPIGNY CEDRIC V1 40 04:30:32 06:47 8.85
153 5737 KÜPPER ASTRID A1 7 04:30:40 06:47 8.84
154 5023 RATINCKX JEAN-PHILIPPE S 86 04:30:41 06:47 8.84
155 5268 PAREIN ESTELLE D 7 04:30:44 06:47 8.84
156 5172 DE MEESTER GERMAIN S 87 04:30:54 06:48 8.83
157 5226 DELLEUR ELODIE D 8 04:31:13 06:48 8.82
158 5438 JEWASINSKI MICHEL V1 41 04:31:21 06:48 8.82
159 5338 GUNS GLENN S 88 04:31:21 06:48 8.82
160 5498 VERDURE KEVIN S 89 04:31:58 06:49 8.80
161 5309 JACOB-PAQUAY ERIC V1 42 04:32:51 06:50 8.77
162 5163 KOSINSKA DOROTA D 9 04:34:40 06:53 8.71
163 5162 CARETTE MATTHIEU S 90 04:34:40 06:53 8.71
164 5552 VAN KERKHOVEN KENNETH S 91 04:35:28 06:54 8.69
165 5005 ANGOUMA SUZANNE D 10 04:35:42 06:55 8.68
166 5504 PINCKAERS NICOLAS S 92 04:36:44 06:56 8.65
167 5574 GURALNIK STEPHAN S 93 04:36:54 06:57 8.64
168 5199 SPIERTZ FRANCOIS S 94 04:36:56 06:57 8.64
169 5424 ALEXANDRE SÉBASTIEN V1 43 04:37:13 06:57 8.63
170 1809 VAN HEUSDEN OLIVIER V1 44 04:37:14 06:57 8.63
171 5258 SPAILIER FABIEN V1 45 04:37:18 06:57 8.63
172 5220 TOUSSAINT IVAN V1 46 04:37:52 06:58 8.61
173 5345 TASSOU SEBASTIEN V1 47 04:38:22 06:59 8.60
174 5051 MALFLIET KATJA D 11 04:38:26 06:59 8.59
175 5462 WERTZ LUC V2 14 04:39:37 07:01 8.56
176 5572 NOKIN XAVIER V2 15 04:39:50 07:01 8.55
177 5204 CHARLIER BENOIT V1 48 04:40:13 07:02 8.54
178 5500 ROHE KARLHEINZ V2 16 04:40:13 07:02 8.54
179 5260 THONNARD MARIE HELENE A2 1 04:40:27 07:02 8.53
180 5317 MASSAUX MARTIN S 95 04:40:32 07:02 8.53
181 5095 CARELS DIDIER V1 49 04:41:16 07:03 8.51
182 5026 LUCIANI ETIENNE V1 50 04:41:16 07:03 8.51
183 5420 MALBURNY JULIEN S 96 04:41:26 07:03 8.50
184 5454 GILLIS KASPER V1 51 04:41:58 07:04 8.49
185 5557 IZZI DIDIER V1 52 04:42:00 07:04 8.49
186 5302 ROZMANOWSKI MICHAEL V1 53 04:42:03 07:04 8.48
187 5489 RENSONNET CHRISTOPHE S 97 04:42:35 07:05 8.47
188 5191 VAN WOESIK JELMER S 98 04:42:46 07:05 8.46
189 5248 VAN KOERT ERIK V1 54 04:42:47 07:05 8.46
190 5315 JAUNIAUX MARIE A1 8 04:42:49 07:05 8.46
191 5316 MANIQUET ETIENNE V1 55 04:42:52 07:06 8.46
192 5244 DUJARDIN PATRICK V2 17 04:43:02 07:06 8.45
193 5434 MAZZAGLIA PIETRO V1 56 04:43:12 07:06 8.45
194 5459 CORNELIS PATRICE V2 18 04:43:20 07:06 8.45
195 5082 HOTTIAUX CÉDRIC S 99 04:43:31 07:07 8.44
196 5091 KEHL GEOFFRAY V1 57 04:44:05 07:07 8.42
197 5559 JENDGES MICHAEL V1 58 04:44:08 07:07 8.42
198 5117 DE BAENST BAUDOUIN V1 59 04:44:43 07:08 8.40
199 5102 CUNIN NICOLAS S 100 04:44:43 07:08 8.40
200 6016 DE HEPCÉE BRUNO V3 2 04:45:50 07:10 8.37
201 5116 EDART VALÉRIE A2 2 04:45:53 07:10 8.37
202 5457 FOHAL JEAN-LUC V2 19 04:46:22 07:11 8.36
203 5205 DEBAERE WOUTER S 101 04:46:36 07:11 8.35
204 5160 DURU MARTINE A1 9 04:47:43 07:13 8.32
205 5474 BEUVENS FREDERIC V1 60 04:48:13 07:14 8.30
206 5547 VERELLEN FRANKY V1 61 04:48:47 07:14 8.29
207 5502 MEPA BENJAMIN S 102 04:49:12 07:15 8.27
208 5329 LECHAT LOUIS V2 20 04:49:19 07:15 8.27
209 5139 LOAEC PIERRE S 103 04:50:12 07:17 8.25
210 5196 DE BROUWER GERO S 104 04:50:16 07:17 8.24
211 5110 LAGAE ALEXIS S 105 04:50:40 07:17 8.23
212 5278 MAGOTTEAUX BORIS V1 62 04:50:57 07:18 8.22
213 5328 DIELS HANNE D 12 04:50:57 07:18 8.22
214 5257 TILBURGS FRANK V2 21 04:50:59 07:18 8.22
215 5003 QUIREYNS ALAN S 106 04:51:03 07:18 8.22
216 5266 VANDEPOELE DAMIEN V2 22 04:51:21 07:18 8.21
217 5476 GERARDY STEVE S 107 04:51:35 07:19 8.21
218 5270 RAUSIN TRISTAN S 108 04:51:52 07:19 8.20
219 5165 VAN BROEKHOVEN ERWIN S 109 04:52:53 07:21 8.17
220 5290 RAUSIN GAUTHIER S 110 04:53:21 07:21 8.16
221 5545 DEBLOODTS FILIP V1 63 04:53:39 07:22 8.15
222 5720 DE RO GLENN S 111 04:53:42 07:22 8.15
223 5225 ANDRE LUDIVINE D 13 04:53:47 07:22 8.15
224 5210 KAYSER JEAN V2 23 04:53:48 07:22 8.14
225 5460 BISSOT ERIC V2 24 04:53:50 07:22 8.14
226 5271 CUPPENS BENOIT V1 64 04:53:50 07:22 8.14
227 6020 VERLUYTEN VERA A2 3 04:53:53 07:22 8.14
228 5093 MEERSSEMAN DIRK V2 25 04:55:00 07:24 8.11
229 5076 CHEVALIER BRUNO S 112 04:55:05 07:24 8.11
230 5287 BUSTIN OLIVIER V1 65 04:55:13 07:24 8.11
231 6010 HARDENNE JOEL V2 26 04:55:29 07:25 8.10
232 5186 GOMBOSO MARC V3 3 04:55:33 07:25 8.10
233 5237 LALLEMANT STEFANIE A1 10 04:55:36 07:25 8.10
234 5441 ANDRÉ CARLOS V2 27 04:55:39 07:25 8.09
235 6019 FRERE SEBASTIEN S 113 04:55:43 07:25 8.09
236 5494 CRANSVELD CHRISTIANE A1 11 04:55:47 07:25 8.09
237 5493 PROVOOST WIM S 114 04:55:51 07:25 8.09
238 5481 ENGELEN ELKE A1 12 04:55:53 07:25 8.09
239 5495 LEUPE JEAN-LOUIS V2 28 04:56:07 07:25 8.08
240 5566 NYSSEN PIERRE V2 29 04:56:56 07:27 8.06
241 5192 NAGY AUDRIC S 115 04:57:00 07:27 8.06
242 5719 DE BAERDEMAECKER THOMAS V1 66 04:57:05 07:27 8.05
243 5232 DÉCARSIN ANNE-CÉLESTE D 14 04:57:06 07:27 8.05
244 5450 BERGER THIERRY V1 67 04:57:13 07:27 8.05
245 5364 MICHAUX DIMITRI V1 68 04:57:42 07:28 8.04
246 5074 REYNDERS KURT V1 69 04:58:37 07:29 8.01
247 5553 ARNOULD JEROME S 116 04:58:51 07:30 8.01
248 5325 SNOECK FELIPE V1 70 04:59:42 07:31 7.98
249 5577 JAMMES THIERRY V1 71 04:59:43 07:31 7.98
250 5195 HANSENNE JÉRÔME V1 72 05:00:48 07:33 7.96
251 5040 COURTOIS PHIL S 117 05:00:53 07:33 7.95
252 5311 SEGHIN VINCENT V2 30 05:01:09 07:33 7.95
253 5250 DE RIJCKE ELODIE D 15 05:01:53 07:34 7.93
254 6021 VANDEWOESTYNE BART V1 73 05:01:53 07:34 7.93
255 5310 SIMON FLORENCE A1 13 05:02:18 07:35 7.92
256 5479 KOPETZH CHRISTOPHE V2 31 05:03:03 07:36 7.90
257 5036 PARTOUNE AURÉLIEN S 118 05:03:16 07:36 7.89
258 5002 SMETS CHRISTOPHE V2 32 05:03:26 07:36 7.89
259 5018 LECHIEN XAVIER V2 33 05:03:31 07:37 7.88
260 5550 DEVAUX BRICE S 119 05:05:09 07:39 7.84
261 5069 PRIMEN JONAS S 120 05:06:07 07:41 7.82
262 5083 BEAUFILS GUILLAUME V1 74 05:06:14 07:41 7.81
263 5143 LARIVE JEROME V1 75 05:06:57 07:42 7.80
264 5062 BRETAUDEAU JONATHAN S 121 05:07:29 07:43 7.78
265 5073 BACK DENIS V1 76 05:07:45 07:43 7.78
266 5362 DUPONT CÉLINE D 16 05:09:18 07:45 7.74
267 5465 FRAITURE BENJAMIN S 122 05:09:20 07:45 7.74
268 5466 DIDDEREN THIERRY V1 77 05:09:21 07:45 7.74
269 5295 ALLEGAERT FREDERICK S 123 05:10:02 07:46 7.72
270 6008 DEMOULIN BRIGITTE A2 4 05:10:13 07:47 7.71
271 5581 SCHWAIGER YVES V2 34 05:10:28 07:47 7.71
272 5582 SCHWAIGER FELIX S 124 05:10:28 07:47 7.71
273 5397 LEMAITRE PAUL V2 35 05:11:29 07:49 7.68
274 5156 GRUSON BENOIT S 125 05:11:47 07:49 7.67
275 5126 NAVEZ ERIC V1 78 05:11:47 07:49 7.67
276 5125 HOUDOU SOPHIE A1 14 05:11:47 07:49 7.67
277 5090 PIRARD OLIVIER S 126 05:12:12 07:50 7.66
278 5061 BRAUD CHARLOTTE D 17 05:12:36 07:50 7.65
279 5077 QUERTINIER ANNE-LAURE A1 15 05:13:09 07:51 7.64
280 5048 VEREYCKEN DAVY V1 79 05:13:12 07:51 7.64
281 6051 VERMAELEN WENDY A1 16 05:14:02 07:52 7.62
282 5491 MARCHAND HERVE V1 80 05:14:08 07:53 7.62
283 5349 JUDEX JEAN-MICHEL V2 36 05:14:22 07:53 7.61
284 5105 GUERENNE ARNAUD S 127 05:15:17 07:54 7.59
285 5044 GILLARDIN BRUNO V1 81 05:15:17 07:54 7.59
286 5418 SAFIN ANTOINE V1 82 05:15:31 07:55 7.58
287 5085 JEANNE JEREMY S 128 05:15:31 07:55 7.58
288 5086 BACHELET SÉBASTIEN V1 83 05:15:31 07:55 7.58
289 5485 DRITTIJ JOS V2 37 05:17:21 07:57 7.54
290 6054 VAN PEE JOHAN V2 38 05:18:14 07:59 7.52
291 5188 BONIVER FREDERIC V1 84 05:19:19 08:00 7.49
292 5190 HAUBRECHTS VALERIE A1 17 05:19:24 08:01 7.49
293 5468 MOLENAAR MARTIN V2 39 05:19:32 08:01 7.49
294 5346 GOUWENS MARCO V2 40 05:19:32 08:01 7.49
295 5202 CHORANA PHIRUM S 129 05:19:38 08:01 7.49
296 5022 MICHEL OLIVIER S 130 05:19:44 08:01 7.48
297 5153 CEUPPENS JOHAN V2 41 05:20:33 08:02 7.47
298 5475 OUADNOUNI M'BAREK V2 42 05:21:20 08:03 7.45
299 5342 JANSSENS PAUL V2 43 05:21:55 08:04 7.43
300 5558 MARTIN GEORGES S 131 05:23:04 08:06 7.41
301 5242 ANGENOT ROMARIC S 132 05:23:30 08:07 7.40
302 5431 BRETSH ERIC V2 44 05:24:04 08:08 7.38
303 5261 CARRE STEPHANE V1 85 05:24:17 08:08 7.38
304 5567 EEMBEEK KIRSTEN D 18 05:24:59 08:09 7.36
305 5108 MERTENS PASCAL V2 45 05:25:59 08:10 7.34
306 5542 WESSELS RUUD V2 46 05:26:07 08:11 7.34
307 5361 LODOMEZ JEAN-LOUIS S 133 05:26:49 08:12 7.32
308 5363 CHRISTIAENS CINDY D 19 05:27:25 08:13 7.31
309 5138 MOINEAU AUDREY D 20 05:27:25 08:13 7.31
310 5283 POLIS STÉPHANE S 134 05:27:25 08:13 7.31
311 5120 MICHAUX GWÉNAËLLE D 21 05:27:27 08:13 7.31
312 5133 ABAD LAMAS PATRICIA A2 5 05:28:04 08:14 7.29
313 5174 SARACINO MASSIMO V1 86 05:28:49 08:15 7.28
314 5015 DUCORROY HELENE A2 6 05:29:06 08:15 7.27
315 5014 LUCAS FREDERIC V1 87 05:29:06 08:15 7.27
316 5564 HANUSSEK HERVE S 135 05:29:36 08:16 7.26
317 5288 DUCHÊNE MATTHIEU S 136 05:30:04 08:17 7.25
318 5540 KEERSMAEKERS CARMEN D 22 05:31:37 08:19 7.22
319 5010 LEMOINE FANNY D 23 05:33:27 08:22 7.18
320 5031 VAN DEN EEDE NOËLLE A1 18 05:33:27 08:22 7.18
321 5240 MAGERMANS BENOÎT S 137 05:35:41 08:25 7.13
322 5249 LIBOTTE VIRGINIE A1 19 05:35:53 08:25 7.12
323 5578 FETTWEIS THIERRY V3 4 05:39:14 08:30 7.05
324 5358 JESSA JOHAN V1 88 05:39:59 08:31 7.04
325 6030 STAPELLE ERIC V2 47 05:40:54 08:33 7.02
326 5004 BRUNIAUX MARIE O A2 7 05:41:30 08:34 7.01
327 5505 LEGISA STEPHANIE D 24 05:41:30 08:34 7.01
328 5506 HENNEN OLIVIER V1 89 05:41:30 08:34 7.01
329 5012 CHARLOT MARC V3 5 05:42:17 08:35 6.99
330 5487 MORAY FRANÇOISE A2 8 05:42:23 08:35 6.99
331 5228 TAVERNIER LUC V2 48 05:42:59 08:36 6.98
332 5170 LOMRY CHRISTINE A1 20 05:43:04 08:36 6.98
333 5135 DUBLET SERGE V3 6 05:46:09 08:41 6.91
334 5456 HUBERT GEERT S 138 05:47:26 08:43 6.89
335 5281 RASE BRUNO V2 49 05:47:35 08:43 6.88
336 5146 LEUNEN CHRISTOPHE V1 90 05:51:10 08:48 6.81
337 5122 RONDIAT JEAN-FRANÇOIS V1 91 05:51:10 08:48 6.81
338 5273 VAN DE VYVER LAURENT V1 92 05:51:34 08:49 6.81
339 5089 DE LANGHE MAAIKE D 25 05:51:58 08:50 6.80
340 5350 PIRON JOHAN V1 93 05:52:13 08:50 6.79
341 5001 LEBRUN YANN V2 50 05:52:40 08:51 6.79
342 5127 FLAMME THIBAUT S 139 05:52:40 08:51 6.79
343 5025 VAN DEN BOSSCHE GUNTHER S 140 05:53:13 08:51 6.77
344 5027 BLODEN BENJAMIN S 141 05:53:55 08:52 6.76
345 6024 MICHEL LUC V1 94 05:54:08 08:53 6.76
346 5486 HENNUS LUC V2 51 05:54:34 08:53 6.75
347 5072 L'HOMMEDE PHILIPPE V3 7 05:56:08 08:56 6.72
348 5461 SCHENKELAARS DICK V3 8 05:56:20 08:56 6.72
349 5101 HERCK PASCAL V1 95 05:56:31 08:56 6.71
350 5556 THUNUS FRANCK S 142 05:57:50 08:58 6.69
351 5282 DECLERCQ YANNICK V1 96 05:57:50 08:58 6.69
352 5321 SOHY DELPHINE A1 21 06:00:30 09:02 6.64
353 5563 EMPAIN DANIEL V1 97 06:00:42 09:03 6.63
354 5233 FRANCKEN JORIS S 143 06:02:27 09:05 6.60
355 5231 BUDTS DAVE S 144 06:02:27 09:05 6.60
356 5208 STÉVART MICKAEL S 145 06:02:45 09:06 6.60
357 5451 FETTWEIS GAËLLE D 26 06:03:19 09:07 6.59
358 5011 LEMOINE CAMILLE D 27 06:03:27 09:07 6.58
359 5094 JUNGBLUTH RAYMOND V3 9 06:03:30 09:07 6.58
360 5294 HOLLEMAN DAVE V1 98 06:06:17 09:11 6.53
361 5477 SCHOUKENS NICOLAS V1 99 06:06:40 09:12 6.53
362 5000 LEMMENS STÉPHANIE A1 22 06:06:40 09:12 6.53
363 5348 ERNST CÉLINE D 28 06:06:40 09:12 6.53
364 5221 THUNUS JENNY A1 23 06:07:43 09:13 6.51
365 5336 DENEFFE PHILIPPE V2 52 06:09:51 09:16 6.47
366 5032 PIRONNET ERIC V2 53 06:18:01 09:29 6.33
367 5054 BARBEZ FRANÇOIS V2 54 06:18:54 09:30 6.32
368 5319 LEDENT STEVEN S 146 06:19:41 09:31 6.30
369 5484 LOUIS MATHIEU S 147 06:19:42 09:31 6.30
370 5155 MRUCZEK EMMANUELLE D 29 06:21:15 09:34 6.28
371 5064 COSTE CLAUDINE A2 9 06:28:28 09:44 6.16
372 5068 VINCENT DOROTHÉE A2 10 06:28:28 09:44 6.16
373 5718 DENOISEUX CHRISTIAN V2 55 06:33:48 09:52 6.08
374 5131 VAN DER WAAL BRIAN V1 100 06:37:45 09:58 6.02
375 5045 KOELEMEIJER SANNE D 30 06:37:48 09:58 6.02
376 5019 WEIJLING FRANK V2 56 06:37:51 09:59 6.01
377 5469 BOSCO VALERIE A1 24 06:44:49 10:09 5.91
378 5470 FRISÉE MARIETTE A3 1 06:44:49 10:09 5.91
379 5063 CARDINEAUD BRIGITTE A3 2 06:45:08 10:09 5.91
380 5252 BUFFET YANNICK V2 57 06:52:56 10:21 5.79
381 5013 TIBERGHIEN THOMAS V1 101 07:12:26 10:51 5.53
               
Nos dernières videos